カタログに戻る

STARLINK-30830

運用中通信VLEO
NORAD 58194·PAYLOAD·🇺🇸 United States

打ち上げ Oct 30, 2023 から Cape Canaveral Space Force Station

Loading…

次のパス (今後24時間)

TLE

最新Source: CelesTrak SupGP

元期: Sep 15, 2026, 01:43 UTC

1 58194C 23167V   26258.07201389  .00009191  00000+0  33291-3 0  2587
2 58194  43.0004 153.5173 0001242 275.2005  46.4611 15.27571752    10

AllMySatでSTARLINK-30830をリアルタイム追跡

Download on the App Store